FENGYUN 1C DEB

Satellite information

Favourite Embed

Satellite Type and Status

DEBRISIN ORBIT

Key statistics

Satellite FENGYUN 1C DEB at a glance.

Uptime

9496

Days in orbit

Revolutions

≈ 14.4

Per day

Orbit

SSO

Sun Synchronous Orbit

Inclination

98.9

Latest

Satellite identification and parameters

Extended collection of information and parameters for FENGYUN 1C DEB.

Object identification

Identified? True

Debris? True

Object name: FENGYUN 1C DEB

International designator: 1999-025ABG

Object number (NORAD): 30345

Object ID (CCSDS): 30345

Country: PEOPLES REPUBLIC OF CHINA (PRC)

Current information (Y/N): Y

RCS size: SMALL

Orbital parameters

Period: 100.085 minutes

Inclination: 98.9296 deg

SMA: 7140.693 km

Apoapsis: 776.639 km

Periapsis: 748.478 km

RAAN: 178.8055 deg

Eccentricy: 0.0019719

Argument of periapsis: 166.6464 deg

Mean anomaly: 193.5248 deg

Mean motion: 14.38772689 rev/day

Mean motion (dot): 0.00006085 rev/day2

B* drag term: 0.0019901 1/REarth

Two-line elements (TLE)

Creation date: May 9, 2025, 2:46 a.m.

Reference frame: TEME

Reference center: EARTH

Epoch: May 8, 2025, 2:45 p.m. UTC

TLE line 0: 0 FENGYUN 1C DEB

TLE line 1: 1 30345U 99025ABG 25128.61524586 .00006085 00000-0 19901-2 0 9996

TLE line 2: 2 30345 98.9296 178.8055 0019719 166.6464 193.5248 14.38772689946347

Live tracking on map

Real-time ground track for satellite FENGYUN 1C DEB.

In-orbit conjunctions

A list of the most updated potential collisions computed for object FENGYUN 1C DEB.

Target Orbit TCA Probability of collision Miss distance Type
IRIDIUM 17 LEO 2025-02-20 03:53:09 0.0007974429 520.0 (m) PAYLOAD
PEGASUS DEB LEO 2024-12-26 09:35:15 0.0001413363 133.0 (m) DEBRIS
DELTA 1 R/B SSO 2024-10-23 01:05:42 0.0001653184 499.0 (m) ROCKET BODY
THORAD AGENA D DEB SSO 2024-08-08 20:35:23 0.0001013712 80.0 (m) DEBRIS
COSMOS 1538 LEO 2024-08-07 16:16:22 0.0001729684 528.0 (m) PAYLOAD

Associated space launch

Chinese polar orbiting meteorological satellite

FENGYUN 1C DEB was lifted into orbit during the mission ‘Long March 4B | Feng Yun 1C’, on board a Long March 4B space rocket.

The launch took place on May 10, 1999, 1:33 a.m. from Launch Complex 7.

For more information about the launch, click the button.

Launch to space Long March 4B | Feng Yun 1C
Long March 4B | Feng Yun 1C

Agency: N/A

Status: Launch Successful

Launch date: May 10, 1999, 1:33 a.m. UTC

Rocket: Long March 4B

Launch pad: Launch Complex 7

Location: Taiyuan Satellite Launch Center, People's Republic of China

...

Latest news about this satellite

There are no fresh news available about this satellite. Check back as we update our databases every day.


Newsletter sign-up

Weekly statistics, charts and insights to help you stay on top of the space industry.